QPF
0.00 0.00 0.00 0.00 0.00 0.01 0.01 0.02 0.02 0.03 0.02 0.02 0.02 0.02 0.02 0.02 0.02 0.02 0.02 0.03 0.04 0.03 0.06 0.11 0.16 0.15 0.14 0.13 0.09 0.08 0.08 0.09 0.08 0.07 0.08 0.09 0.10 0.10 0.10 0.08 0.09 0.10 0.09
0.00 0.00 0.00 0.00 0.00 0.01 0.01 0.02 0.02 0.02 0.02 0.01 0.01 0.01 0.01 0.01 0.02 0.02 0.03 0.03 0.03 0.02 0.02 0.04 0.05 0.07 0.09 0.09 0.09 0.09 0.09 0.09 0.09 0.09 0.10 0.11 0.11 0.10 0.10 0.11 0.10 0.09 0.10
0.00 0.00 0.00 0.00 0.00 0.00 0.01 0.01 0.02 0.02 0.02 0.02 0.01 0.01 0.01 0.02 0.02 0.03 0.04 0.04 0.03 0.02 0.03 0.03 0.03 0.04 0.03 0.06 0.09 0.09 0.09 0.08 0.07 0.08 0.11 0.12 0.11 0.09 0.09 0.10 0.10 0.10 0.12
0.00 0.00 0.00 0.00 0.00 0.00 0.00 0.01 0.02 0.02 0.02 0.02 0.01 0.02 0.02 0.03 0.03 0.03 0.04 0.04 0.04 0.03 0.03 0.03 0.03 0.03 0.03 0.05 0.06 0.08 0.08 0.07 0.08 0.07 0.09 0.10 0.10 0.10 0.08 0.08 0.08 0.09 0.08
0.00 0.00 0.00 0.00 0.00 0.00 0.00 0.00 0.01 0.01 0.02 0.02 0.02 0.01 0.01 0.02 0.02 0.02 0.03 0.04 0.04 0.04 0.03 0.03 0.03 0.03 0.04 0.04 0.04 0.05 0.06 0.05 0.06 0.07 0.07 0.06 0.06 0.08 0.09 0.08 0.07 0.06 0.07
0.00 0.00 0.00 0.00 0.00 0.00 0.00 0.00 0.01 0.01 0.01 0.01 0.01 0.01 0.01 0.02 0.02 0.03 0.03 0.03 0.04 0.04 0.04 0.03 0.03 0.04 0.04 0.06 0.06 0.05 0.05 0.05 0.05 0.05 0.04 0.04 0.05 0.06 0.07 0.07 0.07 0.07 0.07
0.00 0.00 0.00 0.00 0.00 0.00 0.00 0.00 0.00 0.01 0.01 0.01 0.01 0.01 0.01 0.02 0.02 0.03 0.03 0.04 0.03 0.04 0.05 0.03 0.04 0.05 0.05 0.05 0.05 0.05 0.04 0.04 0.05 0.04 0.04 0.04 0.04 0.05 0.05 0.04 0.05 0.07 0.07
0.00 0.00 0.00 0.00 0.00 0.00 0.00 0.00 0.01 0.01 0.01 0.01 0.01 0.01 0.01 0.02 0.02 0.03 0.03 0.03 0.03 0.04 0.04 0.03 0.04 0.04 0.04 0.03 0.03 0.02 0.03 0.04 0.03 0.03 0.03 0.05 0.04 0.04 0.04 0.04 0.06 0.07 0.08
0.00 0.00 0.00 0.00 0.00 0.00 0.00 0.00 0.00 0.00 0.00 0.00 0.01 0.01 0.01 0.01 0.02 0.03 0.03 0.01 0.02 0.03 0.04 0.02 0.02 0.03 0.04 0.05 0.05 0.03 0.03 0.04 0.03 0.02 0.03 0.04 0.05 0.05 0.05 0.05 0.06 0.07 0.07
0.00 0.00 0.00 0.00 0.00 0.00 0.00 0.00 0.01 0.00 0.00 0.01 0.01 0.01 0.01 0.01 0.02 0.02 0.02 0.02 0.02 0.02 0.02 0.02 0.02 0.02 0.02 0.02 0.03 0.03 0.04 0.04 0.04 0.04 0.04 0.05 0.05 0.07 0.07 0.06 0.05 0.06 0.07
0.00 0.00 0.00 0.00 0.00 0.01 0.00 0.01 0.01 0.01 0.01 0.01 0.01 0.01 0.01 0.01 0.01 0.01 0.01 0.02 0.02 0.02 0.02 0.02 0.02 0.02 0.02 0.02 0.02 0.03 0.03 0.04 0.05 0.05 0.06 0.07 0.10 0.09 0.06 0.05 0.05 0.07 0.09
0.00 0.01 0.01 0.01 0.02 0.02 0.01 0.01 0.01 0.01 0.01 0.01 0.01 0.01 0.01 0.01 0.01 0.00 0.01 0.01 0.01 0.01 0.01 0.02 0.02 0.02 0.02 0.02 0.02 0.02 0.03 0.06 0.10 0.11 0.07 0.07 0.09 0.07 0.06 0.06 0.07 0.08 0.08
0.01 0.01 0.02 0.01 0.02 0.02 0.01 0.01 0.01 0.01 0.01 0.01 0.02 0.01 0.01 0.00 0.01 0.01 0.01 0.01 0.00 0.00 0.01 0.01 0.01 0.01 0.01 0.01 0.02 0.03 0.05 0.07 0.08 0.06 0.04 0.04 0.04 0.04 0.04 0.04 0.05 0.05 0.04
0.00 0.01 0.01 0.01 0.01 0.01 0.01 0.01 0.01 0.01 0.01 0.02 0.02 0.01 0.01 0.01 0.01 0.01 0.01 0.01 0.01 0.01 0.01 0.01 0.01 0.01 0.01 0.01 0.03 0.06 0.06 0.03 0.03 0.02 0.01 0.01 0.02 0.03 0.03 0.03 0.03 0.04 0.05
0.00 0.00 0.00 0.00 0.00 0.00 0.01 0.01 0.01 0.01 0.01 0.01 0.01 0.01 0.01 0.01 0.01 0.00 0.00 0.00 0.00 0.00 0.01 0.01 0.02 0.02 0.01 0.02 0.04 0.04 0.02 0.02 0.02 0.01 0.01 0.01 0.02 0.02 0.02 0.02 0.04 0.05 0.05
0.00 0.00 0.00 0.00 0.00 0.00 0.01 0.01 0.02 0.01 0.01 0.00 0.01 0.01 0.01 0.01 0.00 0.00 0.01 0.00 0.00 0.00 0.01 0.01 0.01 0.01 0.01 0.01 0.01 0.01 0.02 0.02 0.02 0.02 0.02 0.03 0.02 0.02 0.02 0.03 0.03 0.03 0.04
0.00 0.00 0.01 0.01 0.01 0.00 0.01 0.01 0.01 0.00 0.00 0.00 0.01 0.00 0.00 0.01 0.01 0.01 0.01 0.01 0.01 0.01 0.01 0.01 0.01 0.01 0.01 0.01 0.02 0.01 0.01 0.01 0.02 0.02 0.02 0.02 0.03 0.03 0.02 0.02 0.02 0.01 0.02
0.00 0.01 0.01 0.00 0.00 0.00 0.00 0.01 0.01 0.00 0.00 0.01 0.02 0.02 0.02 0.02 0.02 0.02 0.03 0.03 0.02 0.01 0.01 0.01 0.01 0.02 0.02 0.02 0.02 0.01 0.01 0.01 0.01 0.01 0.01 0.01 0.01 0.01 0.01 0.01 0.01 0.00 0.01
0.01 0.01 0.00 0.00 0.00 0.00 0.00 0.00 0.00 0.00 0.00 0.01 0.02 0.02 0.02 0.02 0.02 0.02 0.03 0.03 0.02 0.02 0.01 0.01 0.01 0.02 0.02 0.02 0.01 0.01 0.00 0.00 0.00 0.00 0.00 0.01 0.00 0.01 0.01 0.01 0.01 0.00 0.01
0.01 0.01 0.01 0.02 0.02 0.02 0.01 0.00 0.00 0.01 0.01 0.01 0.02 0.02 0.02 0.02 0.01 0.01 0.02 0.02 0.03 0.02 0.02 0.01 0.01 0.01 0.01 0.02 0.01 0.01 0.01 0.01 0.00 0.01 0.00 0.01 0.00 0.00 0.01 0.01 0.01 0.01 0.01
0.02 0.03 0.03 0.03 0.03 0.02 0.02 0.02 0.03 0.03 0.03 0.03 0.02 0.02 0.02 0.02 0.01 0.02 0.02 0.02 0.02 0.02 0.02 0.02 0.01 0.01 0.02 0.02 0.02 0.02 0.01 0.01 0.01 0.01 0.00 0.01 0.01 0.00 0.01 0.01 0.01 0.01 0.01
0.02 0.05 0.07 0.06 0.04 0.05 0.04 0.04 0.06 0.06 0.06 0.05 0.04 0.03 0.02 0.01 0.01 0.02 0.02 0.02 0.02 0.01 0.01 0.02 0.03 0.03 0.02 0.02 0.02 0.03 0.02 0.02 0.02 0.01 0.01 0.01 0.01 0.01 0.01 0.01 0.01 0.01 0.01
0.05 0.10 0.08 0.04 0.04 0.04 0.05 0.05 0.05 0.05 0.05 0.04 0.04 0.03 0.02 0.02 0.02 0.02 0.02 0.02 0.02 0.02 0.03 0.03 0.03 0.03 0.02 0.03 0.03 0.03 0.03 0.03 0.02 0.02 0.02 0.02 0.02 0.01 0.01 0.01 0.01 0.01 0.01
0.04 0.07 0.05 0.04 0.03 0.02 0.02 0.03 0.04 0.04 0.04 0.03 0.02 0.03 0.03 0.03 0.03 0.03 0.03 0.03 0.03 0.03 0.02 0.03 0.03 0.04 0.04 0.03 0.03 0.03 0.02 0.03 0.03 0.02 0.02 0.02 0.02 0.01 0.01 0.01 0.01 0.01 0.01
0.02 0.03 0.03 0.02 0.02 0.01 0.01 0.02 0.02 0.04 0.05 0.05 0.05 0.04 0.04 0.05 0.06 0.08 0.08 0.07 0.06 0.05 0.04 0.04 0.03 0.03 0.04 0.04 0.03 0.02 0.02 0.02 0.02 0.02 0.02 0.02 0.02 0.02 0.01 0.01 0.01 0.01 0.01
0.03 0.03 0.03 0.03 0.02 0.02 0.02 0.01 0.01 0.02 0.03 0.04 0.05 0.05 0.05 0.05 0.05 0.05 0.05 0.05 0.05 0.05 0.05 0.06 0.06 0.05 0.04 0.04 0.03 0.02 0.02 0.02 0.02 0.02 0.02 0.02 0.02 0.03 0.03 0.03 0.03 0.02 0.01
MSLP
1010.54 1010.83 1011.07 1011.26 1011.43 1011.62 1011.86 1012.15 1012.52 1012.94 1013.38 1013.81 1014.19 1014.52 1014.78 1014.99 1015.17 1015.34 1015.54 1015.77 1016.03 1016.31 1016.59 1016.86 1017.10 1017.31 1017.50 1017.67 1017.84 1018.02 1018.21 1018.42 1018.62 1018.80 1018.95 1019.05 1019.10 1019.10 1019.05 1018.98 1018.90 1018.83 1018.79
1010.08 1010.49 1010.84 1011.12 1011.37 1011.59 1011.85 1012.14 1012.50 1012.91 1013.35 1013.78 1014.18 1014.53 1014.81 1015.05 1015.24 1015.43 1015.64 1015.87 1016.14 1016.42 1016.71 1016.98 1017.22 1017.41 1017.57 1017.71 1017.84 1017.99 1018.16 1018.35 1018.56 1018.77 1018.95 1019.09 1019.16 1019.16 1019.08 1018.95 1018.77 1018.59 1018.43
1009.42 1009.95 1010.42 1010.82 1011.16 1011.47 1011.76 1012.09 1012.45 1012.86 1013.30 1013.73 1014.14 1014.50 1014.80 1015.04 1015.24 1015.44 1015.64 1015.87 1016.13 1016.41 1016.70 1016.97 1017.20 1017.39 1017.54 1017.66 1017.77 1017.89 1018.05 1018.25 1018.47 1018.72 1018.94 1019.12 1019.23 1019.25 1019.16 1018.98 1018.74 1018.46 1018.18
1008.60 1009.23 1009.83 1010.36 1010.81 1011.20 1011.57 1011.93 1012.31 1012.73 1013.17 1013.61 1014.03 1014.39 1014.70 1014.95 1015.15 1015.34 1015.54 1015.75 1016.01 1016.29 1016.58 1016.86 1017.10 1017.30 1017.45 1017.56 1017.67 1017.79 1017.94 1018.14 1018.39 1018.66 1018.92 1019.15 1019.30 1019.34 1019.26 1019.06 1018.77 1018.41 1018.03
1007.68 1008.39 1009.10 1009.74 1010.30 1010.78 1011.22 1011.63 1012.05 1012.48 1012.93 1013.39 1013.81 1014.19 1014.51 1014.76 1014.97 1015.16 1015.35 1015.56 1015.81 1016.09 1016.38 1016.67 1016.93 1017.15 1017.32 1017.45 1017.57 1017.69 1017.84 1018.04 1018.30 1018.58 1018.87 1019.13 1019.31 1019.39 1019.33 1019.14 1018.83 1018.42 1017.97
1006.73 1007.49 1008.27 1009.00 1009.65 1010.21 1010.71 1011.17 1011.62 1012.08 1012.55 1013.02 1013.47 1013.87 1014.22 1014.49 1014.71 1014.90 1015.09 1015.30 1015.55 1015.83 1016.13 1016.44 1016.73 1016.98 1017.18 1017.33 1017.46 1017.59 1017.74 1017.94 1018.18 1018.46 1018.76 1019.03 1019.24 1019.35 1019.32 1019.15 1018.85 1018.44 1017.95
1005.80 1006.58 1007.39 1008.17 1008.87 1009.49 1010.04 1010.54 1011.03 1011.52 1012.03 1012.53 1013.02 1013.46 1013.84 1014.14 1014.39 1014.59 1014.79 1015.00 1015.24 1015.52 1015.84 1016.16 1016.48 1016.76 1016.99 1017.18 1017.33 1017.46 1017.61 1017.78 1018.00 1018.26 1018.54 1018.81 1019.03 1019.17 1019.18 1019.06 1018.80 1018.42 1017.94
1004.96 1005.71 1006.51 1007.30 1008.03 1008.67 1009.25 1009.78 1010.30 1010.83 1011.38 1011.93 1012.47 1012.96 1013.38 1013.73 1014.01 1014.24 1014.44 1014.65 1014.89 1015.16 1015.48 1015.82 1016.16 1016.47 1016.74 1016.95 1017.12 1017.26 1017.40 1017.55 1017.73 1017.95 1018.20 1018.45 1018.67 1018.83 1018.89 1018.83 1018.63 1018.31 1017.89
1004.25 1004.94 1005.69 1006.45 1007.15 1007.79 1008.37 1008.92 1009.47 1010.04 1010.63 1011.23 1011.83 1012.38 1012.86 1013.26 1013.58 1013.82 1014.04 1014.24 1014.47 1014.74 1015.05 1015.39 1015.75 1016.08 1016.38 1016.63 1016.82 1016.97 1017.09 1017.21 1017.36 1017.53 1017.74 1017.96 1018.17 1018.35 1018.45 1018.46 1018.35 1018.12 1017.78
1003.72 1004.32 1004.99 1005.67 1006.32 1006.92 1007.48 1008.03 1008.59 1009.18 1009.82 1010.47 1011.13 1011.74 1012.28 1012.72 1013.07 1013.34 1013.56 1013.77 1013.98 1014.24 1014.54 1014.88 1015.24 1015.59 1015.92 1016.19 1016.40 1016.56 1016.68 1016.78 1016.89 1017.03 1017.19 1017.38 1017.59 1017.78 1017.92 1018.00 1017.98 1017.84 1017.61
1003.40 1003.89 1004.45 1005.03 1005.59 1006.12 1006.63 1007.15 1007.70 1008.31 1008.97 1009.67 1010.36 1011.02 1011.61 1012.10 1012.48 1012.77 1013.00 1013.20 1013.40 1013.65 1013.93 1014.27 1014.64 1015.01 1015.35 1015.65 1015.89 1016.07 1016.20 1016.29 1016.38 1016.49 1016.62 1016.78 1016.98 1017.17 1017.35 1017.48 1017.54 1017.50 1017.37
1003.31 1003.67 1004.10 1004.55 1004.99 1005.43 1005.86 1006.33 1006.86 1007.45 1008.12 1008.83 1009.55 1010.23 1010.85 1011.37 1011.78 1012.09 1012.33 1012.53 1012.74 1012.97 1013.26 1013.59 1013.97 1014.36 1014.73 1015.06 1015.33 1015.53 1015.68 1015.79 1015.87 1015.96 1016.08 1016.22 1016.40 1016.59 1016.79 1016.96 1017.07 1017.12 1017.07
1003.42 1003.66 1003.95 1004.26 1004.57 1004.88 1005.22 1005.60 1006.07 1006.63 1007.27 1007.96 1008.67 1009.37 1009.99 1010.53 1010.96 1011.29 1011.55 1011.77 1011.99 1012.24 1012.53 1012.88 1013.27 1013.67 1014.07 1014.43 1014.74 1014.98 1015.16 1015.28 1015.38 1015.48 1015.58 1015.72 1015.88 1016.07 1016.27 1016.45 1016.60 1016.69 1016.71
1003.73 1003.85 1003.99 1004.15 1004.30 1004.48 1004.70 1004.99 1005.37 1005.85 1006.43 1007.07 1007.75 1008.42 1009.03 1009.57 1010.01 1010.37 1010.66 1010.92 1011.17 1011.45 1011.76 1012.13 1012.54 1012.97 1013.39 1013.78 1014.12 1014.40 1014.62 1014.78 1014.90 1015.01 1015.13 1015.25 1015.41 1015.58 1015.77 1015.95 1016.11 1016.22 1016.29
1004.17 1004.17 1004.18 1004.18 1004.19 1004.22 1004.31 1004.47 1004.75 1005.13 1005.62 1006.18 1006.78 1007.40 1007.98 1008.51 1008.96 1009.34 1009.68 1009.98 1010.28 1010.61 1010.97 1011.37 1011.80 1012.25 1012.69 1013.10 1013.47 1013.78 1014.03 1014.23 1014.39 1014.52 1014.65 1014.78 1014.93 1015.09 1015.26 1015.42 1015.57 1015.70 1015.78
1004.70 1004.59 1004.46 1004.32 1004.18 1004.08 1004.03 1004.07 1004.21 1004.47 1004.84 1005.29 1005.80 1006.34 1006.87 1007.37 1007.82 1008.23 1008.61 1008.97 1009.33 1009.71 1010.11 1010.55 1011.00 1011.47 1011.92 1012.35 1012.73 1013.07 1013.35 1013.58 1013.78 1013.94 1014.10 1014.24 1014.39 1014.54 1014.69 1014.84 1014.97 1015.09 1015.18
1005.26 1005.05 1004.80 1004.52 1004.26 1004.02 1003.84 1003.74 1003.76 1003.89 1004.12 1004.45 1004.84 1005.28 1005.73 1006.18 1006.63 1007.05 1007.47 1007.88 1008.30 1008.73 1009.18 1009.64 1010.11 1010.58 1011.03 1011.46 1011.85 1012.20 1012.50 1012.77 1013.01 1013.22 1013.41 1013.58 1013.75 1013.90 1014.04 1014.17 1014.30 1014.41 1014.51
1005.79 1005.48 1005.13 1004.75 1004.37 1004.02 1003.73 1003.52 1003.40 1003.39 1003.49 1003.67 1003.93 1004.25 1004.61 1005.00 1005.41 1005.83 1006.26 1006.71 1007.17 1007.64 1008.11 1008.60 1009.07 1009.54 1009.98 1010.39 1010.78 1011.14 1011.47 1011.78 1012.06 1012.32 1012.56 1012.78 1012.98 1013.15 1013.30 1013.44 1013.56 1013.67 1013.78
1006.25 1005.86 1005.43 1004.96 1004.50 1004.07 1003.68 1003.37 1003.14 1003.00 1002.95 1002.99 1003.11 1003.29 1003.54 1003.84 1004.18 1004.57 1004.99 1005.45 1005.92 1006.41 1006.90 1007.39 1007.86 1008.31 1008.74 1009.15 1009.54 1009.91 1010.27 1010.62 1010.96 1011.29 1011.59 1011.87 1012.12 1012.33 1012.51 1012.66 1012.80 1012.92 1013.05
1006.60 1006.15 1005.66 1005.14 1004.63 1004.14 1003.69 1003.30 1002.97 1002.72 1002.53 1002.42 1002.39 1002.42 1002.54 1002.72 1002.98 1003.30 1003.68 1004.11 1004.57 1005.05 1005.54 1006.02 1006.48 1006.93 1007.35 1007.77 1008.17 1008.57 1008.98 1009.39 1009.80 1010.20 1010.58 1010.93 1011.24 1011.51 1011.73 1011.91 1012.06 1012.21 1012.35
1006.82 1006.33 1005.81 1005.27 1004.73 1004.22 1003.73 1003.28 1002.88 1002.52 1002.21 1001.96 1001.77 1001.65 1001.62 1001.67 1001.81 1002.03 1002.34 1002.72 1003.14 1003.59 1004.06 1004.53 1004.99 1005.44 1005.88 1006.32 1006.76 1007.22 1007.69 1008.18 1008.67 1009.16 1009.62 1010.06 1010.44 1010.76 1011.02 1011.23 1011.41 1011.57 1011.73
1006.87 1006.36 1005.84 1005.31 1004.78 1004.27 1003.77 1003.29 1002.83 1002.39 1001.97 1001.58 1001.25 1000.97 1000.78 1000.68 1000.69 1000.80 1001.01 1001.31 1001.68 1002.09 1002.54 1003.01 1003.48 1003.95 1004.43 1004.92 1005.43 1005.96 1006.52 1007.09 1007.68 1008.26 1008.81 1009.32 1009.76 1010.13 1010.43 1010.67 1010.86 1011.02 1011.18
1006.73 1006.24 1005.74 1005.24 1004.74 1004.26 1003.77 1003.28 1002.78 1002.27 1001.76 1001.26 1000.78 1000.36 1000.02 999.77 999.64 999.63 999.74 999.95 1000.26 1000.64 1001.07 1001.54 1002.04 1002.56 1003.10 1003.66 1004.26 1004.88 1005.54 1006.22 1006.90 1007.56 1008.19 1008.75 1009.24 1009.65 1009.97 1010.21 1010.40 1010.55 1010.70
1006.38 1005.92 1005.47 1005.02 1004.58 1004.14 1003.68 1003.19 1002.67 1002.11 1001.53 1000.93 1000.34 999.80 999.33 998.95 998.70 998.58 998.59 998.73 998.98 999.33 999.76 1000.25 1000.78 1001.36 1001.98 1002.63 1003.32 1004.04 1004.80 1005.56 1006.32 1007.06 1007.74 1008.34 1008.86 1009.27 1009.59 1009.82 1009.99 1010.12 1010.24
1005.81 1005.40 1005.01 1004.63 1004.25 1003.86 1003.44 1002.97 1002.45 1001.87 1001.24 1000.58 999.91 999.28 998.71 998.24 997.89 997.69 997.63 997.72 997.94 998.27 998.70 999.21 999.79 1000.43 1001.12 1001.86 1002.63 1003.44 1004.27 1005.10 1005.92 1006.69 1007.40 1008.01 1008.53 1008.93 1009.23 1009.44 1009.58 1009.67 1009.75
1005.02 1004.67 1004.35 1004.04 1003.73 1003.39 1003.02 1002.58 1002.07 1001.49 1000.84 1000.16 999.46 998.79 998.17 997.66 997.27 997.02 996.93 996.99 997.19 997.52 997.96 998.50 999.12 999.80 1000.54 1001.34 1002.16 1003.02 1003.89 1004.75 1005.59 1006.36 1007.06 1007.66 1008.15 1008.53 1008.79 1008.97 1009.07 1009.13 1009.18
Thickness
5803 5801 5798 5796 5792 5788 5784 5781 5778 5776 5773 5772 5771 5768 5768 5768 5768 5767 5764 5763 5763 5763 5762 5763 5760 5760 5758 5756 5756 5754 5751 5750 5749 5747 5744 5745 5746 5745 5743 5743 5742 5741 5740
5803 5801 5799 5797 5794 5789 5786 5783 5780 5779 5776 5774 5772 5770 5769 5769 5769 5767 5764 5763 5763 5762 5763 5760 5760 5758 5757 5755 5754 5752 5751 5750 5749 5745 5741 5737 5737 5739 5742 5741 5739 5738 5737
5807 5804 5801 5799 5797 5793 5789 5788 5783 5781 5779 5776 5775 5772 5770 5769 5768 5766 5764 5763 5762 5761 5760 5759 5759 5758 5758 5756 5754 5753 5750 5748 5748 5748 5743 5737 5733 5735 5737 5737 5736 5735 5734
5814 5810 5806 5802 5800 5798 5795 5790 5786 5782 5780 5778 5776 5772 5769 5766 5766 5766 5765 5764 5762 5762 5761 5760 5759 5758 5759 5756 5756 5755 5753 5749 5747 5748 5746 5744 5742 5735 5730 5732 5733 5732 5731
5820 5815 5812 5808 5805 5803 5799 5794 5789 5784 5782 5779 5776 5773 5772 5770 5770 5768 5765 5764 5763 5762 5761 5760 5759 5758 5758 5757 5755 5754 5753 5753 5750 5748 5747 5744 5742 5740 5733 5726 5726 5728 5728
5824 5820 5817 5813 5809 5806 5802 5798 5791 5785 5783 5780 5778 5774 5772 5770 5768 5765 5764 5765 5765 5764 5762 5761 5759 5758 5757 5756 5755 5753 5752 5751 5749 5749 5748 5745 5742 5738 5736 5730 5725 5723 5724
5827 5822 5818 5813 5810 5807 5803 5799 5793 5787 5785 5782 5779 5776 5773 5770 5767 5766 5765 5764 5765 5763 5761 5761 5758 5757 5756 5755 5754 5752 5751 5749 5747 5746 5747 5746 5744 5742 5738 5732 5727 5722 5722
5832 5827 5822 5818 5813 5810 5805 5801 5795 5790 5787 5783 5780 5777 5775 5774 5773 5768 5768 5766 5765 5763 5760 5759 5757 5756 5755 5754 5752 5752 5750 5748 5746 5746 5744 5743 5743 5741 5737 5732 5726 5719 5717
5834 5830 5827 5822 5818 5813 5808 5805 5798 5792 5788 5785 5781 5778 5776 5774 5772 5769 5767 5766 5763 5763 5760 5758 5756 5755 5754 5752 5751 5749 5747 5746 5745 5744 5742 5740 5740 5738 5736 5733 5728 5721 5714
5835 5832 5828 5824 5821 5817 5812 5808 5802 5795 5791 5787 5783 5780 5776 5774 5771 5769 5766 5764 5762 5760 5758 5756 5755 5754 5752 5751 5749 5747 5745 5743 5741 5739 5737 5735 5737 5735 5733 5731 5728 5724 5718
5836 5833 5829 5826 5822 5818 5813 5807 5803 5797 5792 5788 5784 5781 5777 5774 5771 5768 5765 5763 5761 5759 5757 5755 5754 5752 5750 5748 5746 5744 5742 5740 5738 5736 5734 5732 5730 5730 5729 5727 5724 5721 5717
5838 5834 5830 5825 5820 5816 5812 5807 5803 5798 5793 5789 5784 5780 5777 5774 5771 5768 5765 5762 5759 5757 5755 5753 5751 5750 5747 5745 5742 5740 5738 5736 5733 5731 5729 5728 5727 5725 5724 5722 5720 5717 5713
5833 5831 5826 5821 5817 5814 5810 5807 5803 5799 5795 5790 5784 5780 5776 5772 5769 5767 5764 5761 5758 5755 5753 5751 5748 5746 5744 5741 5739 5736 5734 5732 5730 5728 5725 5724 5722 5720 5719 5717 5715 5713 5710
5826 5824 5820 5817 5815 5812 5808 5806 5802 5799 5794 5789 5783 5778 5775 5771 5768 5765 5762 5759 5756 5753 5750 5748 5745 5743 5741 5738 5736 5733 5730 5728 5726 5724 5722 5720 5718 5715 5714 5712 5709 5707 5704
5820 5819 5816 5813 5811 5809 5806 5803 5800 5797 5792 5786 5781 5777 5774 5770 5767 5763 5760 5757 5754 5751 5748 5745 5742 5740 5737 5735 5732 5730 5727 5723 5721 5719 5717 5715 5711 5708 5707 5707 5704 5701 5699
5817 5816 5814 5810 5808 5806 5803 5800 5797 5793 5789 5784 5779 5776 5772 5768 5764 5761 5758 5754 5751 5748 5744 5741 5739 5736 5733 5727 5725 5724 5722 5719 5716 5714 5712 5710 5706 5702 5698 5696 5693 5692 5691
5812 5812 5811 5808 5806 5804 5802 5797 5794 5791 5786 5782 5778 5774 5770 5766 5762 5759 5755 5751 5747 5744 5740 5737 5734 5730 5725 5721 5719 5717 5717 5715 5712 5709 5707 5706 5703 5699 5696 5692 5688 5685 5682
5807 5807 5806 5805 5804 5802 5799 5795 5792 5787 5783 5779 5775 5772 5768 5763 5759 5756 5751 5748 5744 5740 5737 5733 5730 5726 5720 5715 5713 5712 5712 5709 5705 5703 5701 5698 5695 5693 5690 5688 5685 5681 5677
5804 5803 5803 5802 5800 5797 5795 5790 5786 5783 5779 5775 5771 5768 5764 5760 5756 5752 5748 5744 5740 5736 5732 5729 5725 5721 5715 5710 5708 5707 5708 5704 5700 5697 5694 5692 5688 5682 5681 5680 5677 5674 5671
5798 5797 5797 5795 5792 5791 5789 5784 5781 5777 5774 5771 5768 5765 5761 5756 5752 5748 5744 5740 5736 5732 5728 5723 5720 5716 5711 5705 5703 5701 5705 5700 5696 5692 5688 5683 5680 5676 5674 5674 5671 5667 5665
5790 5790 5788 5786 5785 5785 5782 5777 5775 5771 5769 5766 5762 5759 5755 5751 5747 5743 5739 5734 5730 5726 5722 5718 5714 5710 5706 5700 5697 5695 5698 5696 5692 5689 5684 5679 5672 5669 5666 5666 5664 5660 5658
5780 5780 5778 5776 5776 5776 5774 5770 5767 5766 5763 5758 5754 5751 5748 5746 5741 5736 5732 5729 5724 5719 5715 5711 5708 5705 5700 5695 5691 5687 5686 5686 5685 5682 5679 5672 5665 5662 5659 5657 5654 5652 5650
5770 5771 5770 5768 5767 5767 5766 5762 5760 5758 5755 5751 5747 5742 5740 5737 5733 5728 5724 5721 5718 5716 5712 5707 5704 5699 5695 5689 5683 5680 5678 5676 5676 5673 5667 5662 5658 5655 5653 5648 5646 5646 5646
5760 5761 5761 5759 5757 5758 5757 5755 5753 5750 5746 5742 5739 5735 5731 5728 5725 5721 5719 5716 5712 5709 5706 5702 5698 5693 5689 5685 5680 5676 5673 5668 5667 5664 5658 5654 5651 5649 5646 5643 5642 5640 5638
5751 5751 5750 5749 5748 5748 5747 5746 5744 5741 5737 5733 5730 5727 5725 5722 5717 5713 5710 5708 5703 5701 5698 5697 5693 5688 5683 5676 5670 5670 5668 5667 5663 5658 5656 5653 5649 5646 5643 5639 5635 5633 5631
5740 5740 5739 5738 5738 5738 5737 5736 5735 5732 5728 5724 5721 5719 5717 5714 5711 5705 5699 5691 5691 5686 5684 5683 5681 5678 5672 5666 5661 5658 5656 5654 5650 5650 5650 5646 5644 5640 5636 5632 5628 5625 5623